Regional Weather Roundup
Issued by NWS Burlington, VT

Home | Current Version | Previous Version | Text Only | Print | Product List | Glossary On
Versions: 1 2 3 4 5 6 7 8 9 10 11 12 13 14 15 16 17 18 19 20 21 22 23 24 25 26 27 28 29 30 31 32 33 34 35 36 37 38 39 40 41 42 43 44 45 46 47 48 49 50
000
ASUS41 KBTV 281930
RWRBTV
VERMONT REGIONAL WEATHER ROUNDUP
NATIONAL WEATHER SERVICE BURLINGTON VT
300 PM EDT WED SEP 28 2016

NOTE: "FAIR" INDICATES FEW OR NO CLOUDS BELOW 12,000 FEET WITH NO
SIGNIFICANT WEATHER AND/OR OBSTRUCTIONS TO VISIBILITY.

* THESE REPORTS ARE NOT UNDER NWS QUALITY CONTROL AND/OR DO NOT
  REPORT WEATHER SUCH AS PRECIPITATION AND FOG.

VTZ001>019-282000-
_____VERMONT_____


CITY           SKY/WX    TMP DP  RH WIND       PRES   REMARKS
BURLINGTON     MOSUNNY   70  49  47 E12       30.22S
MONTPELIER     SUNNY     64  49  57 S8        30.28F
MORRISVILLE    MOSUNNY   68  49  50 CALM      30.25F
ST. JOHNSBURY*   N/A     69  51  52 MISG      30.22F
LYNDONVILLE*   FAIR      64  50  60 NE3       30.27R
MIDDLEBURY*    FAIR      65  48  53 SE9       30.23S
RUTLAND*       CLOUDY    61  50  67 SE7       30.24S
SPRINGFIELD    CLOUDY    58  51  78 E6        30.26S
HIGHGATE*      PTSUNNY   66  53  62 NE6       30.22S
NEWPORT*       DRIZZLE   60  54  78 SE3       30.27R
BENNINGTON     CLOUDY    61  49  64 SE12G20   30.22R
ISLAND POND*     N/A     64 N/A N/A E8          N/A
GALLUP MILLS*    N/A     64 N/A N/A MISG        N/A
UNION VILLAGE*   N/A     64 N/A N/A MISG        N/A
MT. MANSFIELD*   N/A     55 N/A N/A E10         N/A

_____LAKE CHAMPLAIN_____


CITY           SKY/WX    TMP DP  RH WIND       PRES   REMARKS
BURTON ISLAND*   N/A     70  57  64 NW1         N/A
COLCHESTER RF*   N/A     66  57  72 SW3         N/A
DIAMOND ISL*     N/A     68  50  52 E8          N/A

$$

NYZ007-026>031-035-052-083-087-282000-
_____NORTHERN NEW YORK_____


CITY           SKY/WX    TMP DP  RH WIND       PRES   REMARKS
PLATTSBURGH    SUNNY     69  54  58 E7        30.22S
SARANAC LAKE   MOSUNNY   66  44  45 SE7       30.19S
MASSENA        SUNNY     68  54  60 NE16G24   30.20S
OGDENSBURG*    SUNNY     70  55  60 NE10G17   30.17S
POTSDAM*       PTSUNNY   68  59  73 E9G22     30.18R
STARK FALLS*     N/A     79 N/A N/A S9          N/A
WATERTOWN      SUNNY     74  45  35 E10       30.12S
FT DRUM        MOSUNNY   72  48  42 SE14      30.13S
ALBANY         PTSUNNY   66  51  58 E8        30.19R
GLENS FALLS    MOSUNNY   68  49  50 E9        30.19R

$$
NHZ002-005-011-282000-
_____NEW HAMPSHIRE_____


CITY           SKY/WX    TMP DP  RH WIND       PRES   REMARKS
LEBANON        PTSUNNY   60  51  72 VRB6      30.26S
KEENE          CLOUDY    57  50  77 NE10      30.26F
MT WASHINGTON  PTSUNNY   43  37  81 E5          N/A  VSB 1
PLYMOUTH       CLOUDY    59  49  69 E9        30.28F
WHITEFIELD     SUNNY     65  49  56 E13G20    30.25S

$$

_____REGIONAL QUEBEC LOCATIONS_____


CITY           SKY/WX    TMP DP  RH WIND       PRES   REMARKS
MONTREAL       PTSUNNY   66  54  63 NE14G21   30.24R
QUEBEC CITY    PTSUNNY   55  45  67 E14G23    30.38R
SHERBROOKE     PTSUNNY   63  52  67 E10       30.28S

_____REGIONAL ONTARIO LOCATIONS_____


CITY           SKY/WX    TMP DP  RH WIND       PRES   REMARKS
OTTAWA         MOSUNNY   66  54  63 E16       30.20S

______KEY______
VSB  - VISIBILITY IN MILES
WCI  - WIND CHILL INDEX
HX   - HEAT INDEX
$$
NNNN




USA.gov is the U.S. government's official web portal to all federal, state and local government web resources and services.